Regional Weather Roundup
Issued by NWS

Home | Current Version | Previous Version | Graphics & Text | Print | Product List | Glossary On
Versions: 1 2 3 4 5 6 7 8 9 10 11 12 13 14 15 16 17 18 19 20 21 22 23 24 25 26 27 28 29 30 31 32 33 34 35 36 37 38 39 40 41 42 43 44 45 46 47 48 49 50
000
ASUS45 KBOU 012307
RWRCO

WEATHER ROUNDUP FOR COLORADO
NATIONAL WEATHER SERVICE DENVER/BOULDER CO
500 PM MDT MON SEP 01 2014

NOTE: "FAIR" INDICATES FEW OR NO CLOUDS BELOW 12000 FEET WITH NO
SIGNIFICANT WEATHER AND/OR OBSTRUCTIONS TO VISIBILITY.

COZ001>005-013-030-031-020000-
...NORTHWEST COLORADO...

CITY           SKY/WX    TMP DP  RH WIND       PRES   REMARKS
CRAIG          MOSUNNY   74  34  23 W17       30.11S
HAYDEN         MOSUNNY   70  30  23 W18G25    30.14R
MEEKER         SUNNY     76  30  18 W14G23    30.13R
MOUNT WERNER   NOT AVBL
STEAMBOAT SPGS SUNNY     70  31  23 W20       30.15S
WALDEN         SUNNY     63  30  29 SW18G25   30.21R
$$

COZ006>008-011-020000-
...WEST CENTRAL VALLEYS...

CITY           SKY/WX    TMP DP  RH WIND       PRES   REMARKS
GRAND JUNCTION SUNNY     84  34  16 NW8       30.00F
MONTROSE       SUNNY     83  36  18 NW13      30.07S
EAGLE          MOSUNNY   77  32  19 SW13G30   30.13S
RIFLE          MOSUNNY   81  32  17 W13       30.04F
DELTA          SUNNY     89  29  11 W14G22    30.02S
NUCLA          SUNNY     84  28  13 W17       30.11S
$$

COZ017>023-064>068-020000-
...SOUTHWEST COLORADO...

CITY           SKY/WX    TMP DP  RH WIND       PRES   REMARKS
DURANGO        SUNNY     83  28  13 W17G30    30.12F
CORTEZ         SUNNY     87  30  13 W12G18    30.08F
PAGOSA SPRINGS SUNNY     81  21  10 SW16      30.18S
TELLURIDE      SUNNY     72  27  18 W8G17     30.32F
WOLF CREEK PAS NOT AVBL
$$

COZ009-010-012-014-032>034-037-058>063-020000-
...CENTRAL COLORADO...

CITY           SKY/WX    TMP DP  RH WIND       PRES   REMARKS
ASPEN          MOSUNNY   74  34  23 N15G22    30.18S
BUENA VISTA    SUNNY     76  20  12 W15G22    30.16S
COPPER MTN     MOSUNNY   54  28  37 W26G32    30.47R
BERTHOUD PASS  FAIR      45  43  93 W33G46    30.48R
COTTONWOOD PAS SUNNY     70  18  13 NW6G23    30.30F
GUNNISON       MOSUNNY   75  30  19 W15G23    30.20S
KREMMLING      SUNNY     73  23  15 NW14G28   30.17R
LEADVILLE      MOSUNNY   62  30  29 NW14G22   30.32S
MONARCH PASS   SUNNY     55  27  33 W40G55    30.55S
SALIDA         SUNNY     80  26  13 SW16G32   30.19F
SUNLIGHT       SUNNY     63  37  39 CALM      30.43R
WILKERSON PASS NOT AVBL
$$

COZ069>075-020000-
...SAN LUIS VALLEY/SANGRE DE CRISTO MOUNTAINS...

CITY           SKY/WX    TMP DP  RH WIND       PRES   REMARKS
ALAMOSA        MOSUNNY   81  29  15 W12       30.11S
LA VETA PASS   NOT AVBL
SAGUACHE       NOT AVBL
$$

COZ035-036-038>040-020000-
...NORTHERN COLORADO FRONT RANGE...

CITY           SKY/WX    TMP DP  RH WIND       PRES   REMARKS
DENVER INTL AP MOSUNNY   77  38  24 CALM      29.99S
DMNS CITY PARK   N/A     80  38  22 E2G10     29.98R
AURORA         MOSUNNY   78  39  24 SE5       30.01S
FRONT RANGE AP NOT AVBL
ERIE MUNI ARPT SUNNY     80  38  22 E6        29.96S
BOULDER MUN AP MOSUNNY   81  41  24 E8        29.97R
CENTENNIAL     MOSUNNY   78  37  22 S6        30.01S
BROOMFIELD     NOT AVBL
FORT COLLINS   SUNNY     81  45  28 E7        29.96S
LONGMONT       MOSUNNY   81  43  25 E8        29.99R
$$

COZ041-046-047-076>085-087-088-020000-
...PIKES PEAK/PALMER DIVIDE AND SOUTHERN FOOTHILLS...

CITY           SKY/WX    TMP DP  RH WIND       PRES   REMARKS
COLO. SPRINGS  MOSUNNY   78  45  30 E12       30.04S
A. F. ACADEMY  SUNNY     73  46  37 E7        30.06S
ELLICOTT       SUNNY     76  44  32 E10       30.04S
FALCON         SUNNY     74  44  34 SE6       30.10F
FORT CARSON    PTSUNNY   79  46  30 E10       30.00S
LIMON          SUNNY     78  40  25 S10       30.01S
MONUMENT HILL  SUNNY     70  45  40 SE3       30.10S
TRINIDAD       SUNNY     90  28  11 W10G26    29.95S
$$

COZ042>045-048>051-090-091-020000-
...NORTHEAST COLORADO...

CITY           SKY/WX    TMP DP  RH WIND       PRES   REMARKS
GREELEY ARPT   SUNNY     79  43  27 SE3       29.97R
AKRON          SUNNY     78  39  24 MISG      29.97S
BURLINGTON     MOSUNNY   79  43  27 SE10G16   29.96S
WRAY             N/A     82  47  29 SE3       29.93F
STERLING       SUNNY     82  52  34 S6        29.91F
HOLYOKE        SUNNY     79  48  34 S5        29.93S
FORT MORGAN    SUNNY     80  40  23 S3        29.96S
$$

COZ086-089-092>099-020000-
...SOUTHEAST COLORADO...

CITY           SKY/WX    TMP DP  RH WIND       PRES   REMARKS
PUEBLO         SUNNY     89  42  19 S10       29.88F
LA JUNTA       SUNNY     88  42  20 SE10      29.89F
LAMAR          SUNNY     87  45  23 SE10      29.88F
SPRINGFIELD      N/A     84  48  28 SE13      29.94F
$$



USA.gov is the U.S. government's official web portal to all federal, state and local government web resources and services.